Date,TemperatureHighF,TemperatureAvgF,TemperatureLowF,DewpointHighF,DewpointAvgF,DewpointLowF,HumidityHigh,HumidityAvg,HumidityLow,PressureMaxIn,PressureMinIn,WindSpeedMaxMPH,WindSpeedAvgMPH,GustSpeedMaxMPH,PrecipitationSumIn
2013-2-1,27.5,20.4,13.1,22.3,8.8,1.6,92,61,47,30.34,29.80,29,6,29,0.00
2013-2-2,26.1,18.2,9.7,22.7,10.9,3.5,87,73,58,30.34,29.98,17,2,17,0.00
2013-2-3,31.5,26.2,21.6,26.7,21.5,13.1,95,83,62,29.98,29.79,20,2,20,0.01
2013-2-4,35.6,27.6,21.4,25.6,17.1,12.7,79,65,51,30.06,29.86,17,3,17,0.00
2013-2-5,37.1,31.9,29.0,32.9,29.0,23.5,100,89,79,29.92,29.82,9,1,9,0.00
2013-2-6,38.0,33.3,25.5,31.6,26.9,19.9,92,77,64,30.31,29.92,16,3,16,0.00
2013-2-7,35.8,30.1,22.1,27.8,23.0,17.7,84,75,63,30.38,30.16,19,5,19,0.00
2013-2-8,39.2,32.8,29.0,34.6,28.6,20.0,96,85,68,30.16,29.79,31,4,31,0.01
2013-2-9,37.2,29.9,21.8,20.0,17.2,12.9,76,60,41,30.37,29.94,36,8,36,0.01
2013-2-10,41.7,30.3,16.5,25.5,17.5,10.8,81,60,41,30.41,30.16,19,5,20,0.00
2013-2-11,59.9,40.8,32.9,49.8,35.3,25.5,100,83,37,30.16,29.75,5,0,5,0.09
2013-2-12,54.5,44.8,35.3,31.3,25.8,20.9,64,48,29,29.99,29.85,17,2,17,0.00
2013-2-13,40.1,32.8,25.9,31.8,26.2,20.5,99,77,58,29.94,29.67,12,1,12,0.02
2013-2-14,46.6,36.2,27.9,32.2,27.9,23.1,99,73,50,29.99,29.78,16,2,16,0.17
2013-2-15,50.2,38.1,30.6,34.8,30.3,25.0,88,74,53,30.03,29.93,18,3,18,0.10
2013-2-16,34.7,30.9,24.3,29.3,21.8,12.9,92,70,53,30.00,29.87,23,4,23,0.00
2013-2-17,25.0,21.8,19.1,15.9,10.0,3.8,80,61,44,30.20,29.86,31,6,31,0.00
2013-2-18,41.9,27.3,13.3,21.1,12.2,5.4,72,54,33,30.34,30.07,19,3,19,0.00
2013-2-19,48.8,38.7,30.0,38.6,28.5,19.9,86,67,49,30.07,29.67,23,5,23,0.02
2013-2-20,32.7,26.8,20.1,21.0,13.6,8.1,65,57,47,30.16,29.84,24,7,24,0.00
2013-2-21,32.7,25.1,19.8,16.6,13.6,9.3,71,62,49,30.30,30.10,27,7,27,0.00
2013-2-22,29.5,26.9,23.9,26.7,21.3,16.4,90,79,68,30.34,30.14,18,6,18,0.00
2013-2-23,47.5,35.6,29.1,39.2,31.7,26.4,97,86,71,30.15,29.83,9,1,9,0.00
2013-2-24,45.9,36.4,28.6,36.8,27.3,17.8,100,71,45,30.12,29.81,24,6,24,0.00
2013-2-25,42.1,31.7,24.1,23.9,20.8,18.1,81,65,45,30.21,30.11,14,2,14,0.00
2013-2-26,36.3,31.1,24.6,36.2,27.7,19.7,100,87,72,30.18,29.65,10,2,10,0.71
2013-2-27,49.5,40.4,33.8,40.9,33.8,30.8,100,79,53,29.71,29.57,13,3,13,0.01
2013-2-28,40.7,37.0,33.5,33.7,28.0,24.1,81,70,55,29.74,29.64,17,3,17,0.00